TimePST,TemperatureF,Dew PointF,Humidity,Sea Level PressureIn,VisibilityMPH,Wind Direction,Wind SpeedMPH,Gust SpeedMPH,PrecipitationIn,Events,Conditions,WindDirDegrees,DateUTC
12:15 AM,44.6,21.2,39,30.08,10.0,Calm,Calm,-,N/A,,Clear,0,2012-11-16 08:15:00
12:35 AM,46.4,19.4,34,30.08,10.0,Calm,Calm,-,N/A,,Clear,0,2012-11-16 08:35:00
12:55 AM,44.6,21.2,39,30.08,10.0,Calm,Calm,-,N/A,,Clear,0,2012-11-16 08:55:00
1:15 AM,42.8,24.8,49,30.08,10.0,Calm,Calm,-,N/A,,Clear,0,2012-11-16 09:15:00
1:35 AM,41.0,24.8,53,30.07,10.0,Calm,Calm,-,N/A,,Clear,0,2012-11-16 09:35:00
1:55 AM,41.0,24.8,53,30.08,10.0,Calm,Calm,-,N/A,,Clear,0,2012-11-16 09:55:00
2:15 AM,41.0,21.2,45,30.07,10.0,Calm,Calm,-,N/A,,Clear,0,2012-11-16 10:15:00
2:35 AM,41.0,24.8,53,30.07,10.0,Calm,Calm,-,N/A,,Clear,0,2012-11-16 10:35:00
2:55 AM,44.6,26.6,49,30.07,10.0,Calm,Calm,-,N/A,,Mostly Cloudy,0,2012-11-16 10:55:00
3:15 AM,46.4,26.6,46,30.07,10.0,Calm,Calm,-,N/A,,Overcast,0,2012-11-16 11:15:00
3:35 AM,48.2,26.6,43,30.06,10.0,Calm,Calm,-,N/A,,Overcast,0,2012-11-16 11:35:00
3:55 AM,50.0,23.0,35,30.06,10.0,Calm,Calm,-,N/A,,Overcast,0,2012-11-16 11:55:00
4:15 AM,48.2,26.6,43,30.06,10.0,Calm,Calm,-,N/A,,Overcast,0,2012-11-16 12:15:00
4:35 AM,50.0,24.8,37,30.06,10.0,Calm,Calm,-,N/A,,Overcast,0,2012-11-16 12:35:00
4:55 AM,48.2,28.4,46,30.07,10.0,Calm,Calm,-,N/A,,Overcast,0,2012-11-16 12:55:00
5:15 AM,50.0,23.0,35,30.07,10.0,Calm,Calm,-,N/A,,Overcast,0,2012-11-16 13:15:00
5:35 AM,48.2,26.6,43,30.06,10.0,Calm,Calm,-,N/A,,Overcast,0,2012-11-16 13:35:00
5:55 AM,48.2,28.4,46,30.07,10.0,WSW,3.5,-,N/A,,Overcast,250,2012-11-16 13:55:00
6:15 AM,48.2,23.0,37,30.08,10.0,Calm,Calm,-,N/A,,Overcast,0,2012-11-16 14:15:00
6:35 AM,48.2,26.6,43,30.09,10.0,Calm,Calm,-,N/A,,Overcast,0,2012-11-16 14:35:00
6:55 AM,48.2,26.6,43,30.09,10.0,Calm,Calm,-,N/A,,Overcast,0,2012-11-16 14:55:00
7:15 AM,50.0,24.8,37,30.10,10.0,Calm,Calm,-,N/A,,Overcast,0,2012-11-16 15:15:00
7:35 AM,48.2,23.0,37,30.11,10.0,Calm,Calm,-,N/A,,Mostly Cloudy,0,2012-11-16 15:35:00
7:55 AM,50.0,26.6,40,30.11,10.0,Calm,Calm,-,N/A,,Partly Cloudy,0,2012-11-16 15:55:00
8:15 AM,50.0,33.8,54,30.11,10.0,Calm,Calm,-,N/A,,Mostly Cloudy,0,2012-11-16 16:15:00
8:35 AM,50.0,37.4,62,30.12,10.0,Calm,Calm,-,N/A,,Overcast,0,2012-11-16 16:35:00
8:55 AM,53.6,28.4,38,30.12,10.0,NNW,3.5,-,N/A,,Mostly Cloudy,330,2012-11-16 16:55:00
9:15 AM,55.4,37.4,51,30.12,10.0,ENE,4.6,-,N/A,,Mostly Cloudy,60,2012-11-16 17:15:00
9:35 AM,57.2,32.0,38,30.12,10.0,ENE,3.5,-,N/A,,Mostly Cloudy,70,2012-11-16 17:35:00
9:55 AM,55.4,37.4,51,30.12,10.0,Calm,Calm,-,N/A,,Mostly Cloudy,0,2012-11-16 17:55:00
10:15 AM,55.4,35.6,47,30.12,10.0,Calm,Calm,-,N/A,,Overcast,0,2012-11-16 18:15:00
10:35 AM,57.2,32.0,38,30.11,10.0,Calm,Calm,-,N/A,,Mostly Cloudy,0,2012-11-16 18:35:00
10:55 AM,59.0,32.0,36,30.10,10.0,Calm,Calm,-,N/A,,Mostly Cloudy,0,2012-11-16 18:55:00
11:15 AM,59.0,28.4,31,30.09,10.0,SW,4.6,-,N/A,,Mostly Cloudy,230,2012-11-16 19:15:00
11:35 AM,59.0,26.6,29,30.09,10.0,Calm,Calm,-,N/A,,Mostly Cloudy,0,2012-11-16 19:35:00
11:55 AM,64.4,23.0,21,30.08,10.0,Calm,Calm,-,N/A,,Mostly Cloudy,0,2012-11-16 19:55:00
12:15 PM,64.4,19.4,18,30.07,10.0,Calm,Calm,-,N/A,,Mostly Cloudy,0,2012-11-16 20:15:00
12:35 PM,64.4,21.2,19,30.06,10.0,Calm,Calm,-,N/A,,Mostly Cloudy,0,2012-11-16 20:35:00
12:55 PM,66.2,19.4,17,30.05,10.0,East,4.6,-,N/A,,Mostly Cloudy,90,2012-11-16 20:55:00
1:15 PM,68.0,17.6,15,30.04,10.0,SSE,4.6,-,N/A,,Mostly Cloudy,150,2012-11-16 21:15:00
1:35 PM,68.0,15.8,13,30.03,10.0,SSE,5.8,-,N/A,,Mostly Cloudy,150,2012-11-16 21:35:00
1:55 PM,68.0,15.8,13,30.03,10.0,ESE,5.8,-,N/A,,Scattered Clouds,120,2012-11-16 21:55:00
2:15 PM,69.8,15.8,13,30.02,10.0,East,8.1,-,N/A,,Scattered Clouds,100,2012-11-16 22:15:00
2:35 PM,69.8,17.6,14,30.02,10.0,ESE,9.2,-,N/A,,Partly Cloudy,120,2012-11-16 22:35:00
2:55 PM,69.8,19.4,15,30.02,10.0,SE,9.2,-,N/A,,Clear,130,2012-11-16 22:55:00
3:15 PM,69.8,19.4,15,30.02,10.0,ESE,10.4,-,N/A,,Clear,110,2012-11-16 23:15:00
3:35 PM,68.0,23.0,18,30.02,10.0,ESE,8.1,-,N/A,,Clear,120,2012-11-16 23:35:00
3:55 PM,68.0,23.0,18,30.02,10.0,ESE,5.8,-,N/A,,Clear,110,2012-11-16 23:55:00
4:15 PM,66.2,23.0,19,30.02,10.0,Calm,Calm,-,N/A,,Clear,0,2012-11-17 00:15:00
4:35 PM,66.2,23.0,19,30.02,10.0,Calm,Calm,-,N/A,,Clear,0,2012-11-17 00:35:00
4:55 PM,64.4,21.2,19,30.02,10.0,SSE,4.6,-,N/A,,Clear,160,2012-11-17 00:55:00
5:15 PM,64.4,23.0,21,30.02,10.0,South,6.9,-,N/A,,Clear,170,2012-11-17 01:15:00
5:35 PM,64.4,23.0,21,30.03,10.0,ESE,5.8,-,N/A,,Clear,120,2012-11-17 01:35:00
5:55 PM,62.6,23.0,22,30.03,10.0,SE,4.6,-,N/A,,Clear,130,2012-11-17 01:55:00
6:15 PM,62.6,23.0,22,30.03,10.0,South,3.5,-,N/A,,Clear,170,2012-11-17 02:15:00
6:35 PM,59.0,23.0,25,30.03,10.0,Calm,Calm,-,N/A,,Clear,0,2012-11-17 02:35:00
6:55 PM,55.4,26.6,33,30.03,10.0,NE,3.5,-,N/A,,Clear,40,2012-11-17 02:55:00
7:15 PM,55.4,26.6,33,30.03,10.0,NNE,4.6,-,N/A,,Clear,30,2012-11-17 03:15:00
8:15 PM,53.6,26.6,35,30.04,10.0,Calm,Calm,-,N/A,,Clear,0,2012-11-17 04:15:00
8:35 PM,55.4,28.4,36,30.04,10.0,East,4.6,-,N/A,,Clear,80,2012-11-17 04:35:00
8:55 PM,53.6,26.6,35,30.04,10.0,North,3.5,-,N/A,,Clear,350,2012-11-17 04:55:00
9:15 PM,53.6,28.4,38,30.05,10.0,Calm,Calm,-,N/A,,Clear,0,2012-11-17 05:15:00
9:35 PM,53.6,28.4,38,30.05,10.0,Calm,Calm,-,N/A,,Clear,0,2012-11-17 05:35:00
9:55 PM,53.6,28.4,38,30.05,10.0,Calm,Calm,-,N/A,,Partly Cloudy,0,2012-11-17 05:55:00
10:15 PM,55.4,28.4,36,30.05,10.0,Calm,Calm,-,N/A,,Partly Cloudy,0,2012-11-17 06:15:00
10:35 PM,55.4,26.6,33,30.05,10.0,East,5.8,-,N/A,,Clear,90,2012-11-17 06:35:00
10:55 PM,53.6,28.4,38,30.06,10.0,NE,3.5,-,N/A,,Clear,40,2012-11-17 06:55:00
11:15 PM,53.6,26.6,35,30.06,10.0,ENE,5.8,-,N/A,,Clear,60,2012-11-17 07:15:00
11:35 PM,53.6,28.4,38,30.05,10.0,NE,4.6,-,N/A,,Clear,50,2012-11-17 07:35:00
11:55 PM,53.6,28.4,38,30.04,10.0,NE,6.9,-,N/A,,Clear,40,2012-11-17 07:55:00